Time,TemperatureF,DewpointF,PressureIn,WindDirection,WindDirectionDegrees,WindSpeedMPH,WindSpeedGustMPH,Humidity,HourlyPrecipIn,Conditions,Clouds,dailyrainin,SoftwareType,DateUTC
2013-06-28 00:10:00,77.7,37.0,29.88,NNW,338,5.0,7.0,23,0.00,,,0.00,weatherlink.com 1.10,2013-06-28 07:10:00,
2013-06-28 00:25:00,78.1,37.0,29.88,North,351,8.0,12.0,23,0.00,,,0.00,weatherlink.com 1.10,2013-06-28 07:25:00,
2013-06-28 00:40:00,78.1,37.0,29.88,NNW,344,10.0,13.0,23,0.00,,,0.00,weatherlink.com 1.10,2013-06-28 07:40:00,
2013-06-28 00:55:00,77.2,37.0,29.88,NNW,340,10.0,12.0,23,0.00,,,0.00,weatherlink.com 1.10,2013-06-28 07:55:00,
2013-06-28 01:10:00,77.2,37.0,29.88,NW,325,5.0,10.0,23,0.00,,,0.00,weatherlink.com 1.10,2013-06-28 08:10:00,
2013-06-28 01:25:00,77.4,37.0,29.89,NNW,327,8.0,12.0,23,0.00,,,0.00,weatherlink.com 1.10,2013-06-28 08:25:00,
2013-06-28 01:40:00,77.4,38.0,29.89,NNW,338,6.0,11.0,24,0.00,,,0.00,weatherlink.com 1.10,2013-06-28 08:40:00,
2013-06-28 01:55:00,77.2,37.0,29.89,NNW,348,8.0,11.0,23,0.00,,,0.00,weatherlink.com 1.10,2013-06-28 08:55:00,
2013-06-28 02:10:00,77.0,36.0,29.88,NNW,339,4.0,7.0,23,0.00,,,0.00,weatherlink.com 1.10,2013-06-28 09:10:00,
2013-06-28 02:25:00,76.5,37.0,29.88,NNW,338,3.0,8.0,24,0.00,,,0.00,weatherlink.com 1.10,2013-06-28 09:25:00,
2013-06-28 02:40:00,75.3,38.0,29.88,NNW,336,3.0,6.0,26,0.00,,,0.00,weatherlink.com 1.10,2013-06-28 09:40:00,
2013-06-28 02:55:00,75.3,37.0,29.88,NNW,335,5.0,9.0,25,0.00,,,0.00,weatherlink.com 1.10,2013-06-28 09:55:00,
2013-06-28 03:10:00,75.4,37.0,29.88,NNW,340,3.0,9.0,25,0.00,,,0.00,weatherlink.com 1.10,2013-06-28 10:10:00,
2013-06-28 03:25:00,73.3,36.0,29.88,NNW,336,2.0,4.0,26,0.00,,,0.00,weatherlink.com 1.10,2013-06-28 10:25:00,
2013-06-28 03:40:00,73.0,35.0,29.88,NNW,333,3.0,5.0,25,0.00,,,0.00,weatherlink.com 1.10,2013-06-28 10:40:00,
2013-06-28 03:55:00,73.2,37.0,29.88,NNW,333,2.0,5.0,27,0.00,,,0.00,weatherlink.com 1.10,2013-06-28 10:55:00,
2013-06-28 04:10:00,73.5,36.0,29.87,NNW,333,1.0,5.0,26,0.00,,,0.00,weatherlink.com 1.10,2013-06-28 11:10:00,
2013-06-28 04:25:00,73.5,36.0,29.88,North,351,6.0,7.0,25,0.00,,,0.00,weatherlink.com 1.10,2013-06-28 11:25:00,
2013-06-28 04:40:00,72.7,37.0,29.87,NNW,348,5.0,8.0,27,0.00,,,0.00,weatherlink.com 1.10,2013-06-28 11:40:00,
2013-06-28 04:55:00,72.1,37.0,29.87,NW,309,4.0,8.0,28,0.00,,,0.00,weatherlink.com 1.10,2013-06-28 11:55:00,
2013-06-28 05:10:00,70.8,37.0,29.87,NW,309,3.0,5.0,29,0.00,,,0.00,weatherlink.com 1.10,2013-06-28 12:10:00,
2013-06-28 05:25:00,70.8,37.0,29.88,NW,309,3.0,5.0,29,0.00,,,0.00,weatherlink.com 1.10,2013-06-28 12:25:00,
2013-06-28 05:40:00,71.6,37.0,29.88,NW,304,5.0,7.0,28,0.00,,,0.00,weatherlink.com 1.10,2013-06-28 12:40:00,
2013-06-28 05:55:00,72.1,36.0,29.88,WNW,294,5.0,7.0,27,0.00,,,0.00,weatherlink.com 1.10,2013-06-28 12:55:00,
2013-06-28 06:10:00,72.7,37.0,29.88,WNW,300,4.0,9.0,27,0.00,,,0.00,weatherlink.com 1.10,2013-06-28 13:10:00,
2013-06-28 06:25:00,73.2,38.0,29.88,NW,317,5.0,9.0,28,0.00,,,0.00,weatherlink.com 1.10,2013-06-28 13:25:00,
2013-06-28 06:40:00,73.5,38.0,29.88,NW,309,7.0,9.0,28,0.00,,,0.00,weatherlink.com 1.10,2013-06-28 13:40:00,
2013-06-28 06:55:00,74.0,38.0,29.88,WNW,299,5.0,9.0,27,0.00,,,0.00,weatherlink.com 1.10,2013-06-28 13:55:00,
2013-06-28 07:10:00,74.7,38.0,29.88,NNW,337,5.0,9.0,27,0.00,,,0.00,weatherlink.com 1.10,2013-06-28 14:10:00,
2013-06-28 07:25:00,75.3,40.0,29.88,NW,326,8.0,11.0,28,0.00,,,0.00,weatherlink.com 1.10,2013-06-28 14:25:00,
2013-06-28 07:40:00,76.1,40.0,29.88,NNE,30,3.0,9.0,27,0.00,,,0.00,weatherlink.com 1.10,2013-06-28 14:40:00,
2013-06-28 07:55:00,77.0,40.0,29.88,NNE,32,8.0,10.0,27,0.00,,,0.00,weatherlink.com 1.10,2013-06-28 14:55:00,
2013-06-28 08:10:00,78.3,42.0,29.88,NNE,23,5.0,8.0,27,0.00,,,0.00,weatherlink.com 1.10,2013-06-28 15:10:00,
2013-06-28 08:25:00,79.2,42.0,29.87,NE,35,9.0,9.0,27,0.00,,,0.00,weatherlink.com 1.10,2013-06-28 15:25:00,
2013-06-28 08:40:00,81.8,43.0,29.87,NNE,15,5.0,9.0,25,0.00,,,0.00,weatherlink.com 1.10,2013-06-28 15:40:00,
2013-06-28 08:55:00,83.0,43.0,29.87,NE,39,4.0,8.0,24,0.00,,,0.00,weatherlink.com 1.10,2013-06-28 15:55:00,
2013-06-28 09:10:00,83.6,42.0,29.86,NNE,25,3.0,8.0,23,0.00,,,0.00,weatherlink.com 1.10,2013-06-28 16:10:00,
2013-06-28 09:25:00,83.2,43.0,29.86,NNW,343,4.0,9.0,24,0.00,,,0.00,weatherlink.com 1.10,2013-06-28 16:25:00,
2013-06-28 09:41:00,84.3,43.0,29.85,NNE,25,4.0,11.0,23,0.00,,,0.00,weatherlink.com 1.10,2013-06-28 16:41:00,
2013-06-28 09:56:00,85.5,41.0,29.85,North,5,5.0,13.0,21,0.00,,,0.00,weatherlink.com 1.10,2013-06-28 16:56:00,
2013-06-28 10:11:00,87.2,42.0,29.85,North,355,7.0,11.0,20,0.00,,,0.00,weatherlink.com 1.10,2013-06-28 17:11:00,
2013-06-28 10:26:00,89.7,41.0,29.84,NE,40,4.0,9.0,18,0.00,,,0.00,weatherlink.com 1.10,2013-06-28 17:26:00,
2013-06-28 10:41:00,90.5,40.0,29.84,NNE,13,4.0,9.0,17,0.00,,,0.00,weatherlink.com 1.10,2013-06-28 17:41:00,
2013-06-28 10:56:00,91.6,39.0,29.83,NE,49,6.0,11.0,16,0.00,,,0.00,weatherlink.com 1.10,2013-06-28 17:56:00,
2013-06-28 11:11:00,92.5,39.0,29.82,NE,51,0.0,6.0,15,0.00,,,0.00,weatherlink.com 1.10,2013-06-28 18:11:00,
2013-06-28 11:26:00,95.9,39.0,29.82,NE,42,2.0,6.0,14,0.00,,,0.00,weatherlink.com 1.10,2013-06-28 18:26:00,
2013-06-28 11:56:00,93.8,40.0,29.81,NNW,340,0.0,9.0,15,0.00,,,0.00,weatherlink.com 1.10,2013-06-28 18:56:00,
2013-06-28 12:11:00,94.3,38.0,29.80,NW,304,2.0,4.0,14,0.00,,,0.00,weatherlink.com 1.10,2013-06-28 19:11:00,
2013-06-28 12:26:00,94.0,40.0,29.79,NNW,337,0.0,9.0,15,0.00,,,0.00,weatherlink.com 1.10,2013-06-28 19:26:00,
2013-06-28 12:41:00,95.4,37.0,29.79,WNW,291,0.0,10.0,13,0.00,,,0.00,weatherlink.com 1.10,2013-06-28 19:41:00,
2013-06-28 12:56:00,99.4,38.0,29.78,NE,38,3.0,6.0,12,0.00,,,0.00,weatherlink.com 1.10,2013-06-28 19:56:00,
2013-06-28 13:11:00,101.7,38.0,29.77,South,182,0.0,6.0,11,0.00,,,0.00,weatherlink.com 1.10,2013-06-28 20:11:00,
2013-06-28 13:26:00,104.1,40.0,29.76,East,83,1.0,7.0,11,0.00,,,0.00,weatherlink.com 1.10,2013-06-28 20:26:00,
2013-06-28 13:41:00,100.2,39.0,29.76,NNW,345,5.0,8.0,12,0.00,,,0.00,weatherlink.com 1.10,2013-06-28 20:41:00,
2013-06-28 13:56:00,101.0,37.0,29.75,SE,142,6.0,7.0,11,0.00,,,0.00,weatherlink.com 1.10,2013-06-28 20:56:00,
2013-06-28 14:11:00,103.3,37.0,29.74,SE,133,1.0,8.0,10,0.00,,,0.00,weatherlink.com 1.10,2013-06-28 21:11:00,
2013-06-28 14:26:00,101.7,36.0,29.73,SE,130,1.0,10.0,10,0.00,,,0.00,weatherlink.com 1.10,2013-06-28 21:26:00,
2013-06-28 14:41:00,104.9,38.0,29.73,SE,126,5.0,7.0,10,0.00,,,0.00,weatherlink.com 1.10,2013-06-28 21:41:00,
2013-06-28 14:56:00,104.6,38.0,29.71,ESE,117,3.0,6.0,10,0.00,,,0.00,weatherlink.com 1.10,2013-06-28 21:56:00,
2013-06-28 15:11:00,108.2,38.0,29.70,SSE,155,1.0,7.0,9,0.00,,,0.00,weatherlink.com 1.10,2013-06-28 22:11:00,
2013-06-28 15:26:00,108.2,38.0,29.70,East,86,0.0,9.0,9,0.00,,,0.00,weatherlink.com 1.10,2013-06-28 22:26:00,
2013-06-28 15:42:00,110.5,37.0,29.69,ESE,103,4.0,6.0,8,0.00,,,0.00,weatherlink.com 1.10,2013-06-28 22:42:00,
2013-06-28 15:57:00,107.4,37.0,29.68,ENE,67,7.0,11.0,9,0.00,,,0.00,weatherlink.com 1.10,2013-06-28 22:57:00,
2013-06-28 16:12:00,109.1,36.0,29.68,NW,306,6.0,6.0,8,0.00,,,0.00,weatherlink.com 1.10,2013-06-28 23:12:00,
2013-06-28 16:27:00,106.8,37.0,29.67,ENE,76,2.0,13.0,9,0.00,,,0.00,weatherlink.com 1.10,2013-06-28 23:27:00,
2013-06-28 16:42:00,104.4,38.0,29.67,NW,319,6.0,11.0,10,0.00,,,0.00,weatherlink.com 1.10,2013-06-28 23:42:00,
2013-06-28 16:57:00,105.1,36.0,29.66,NNE,22,3.0,8.0,9,0.00,,,0.00,weatherlink.com 1.10,2013-06-28 23:57:00,
2013-06-28 17:12:00,104.4,35.0,29.66,SSW,211,5.0,7.0,9,0.00,,,0.00,weatherlink.com 1.10,2013-06-29 00:12:00,
2013-06-28 17:27:00,104.6,35.0,29.66,SE,133,1.0,9.0,9,0.00,,,0.00,weatherlink.com 1.10,2013-06-29 00:27:00,
2013-06-28 17:42:00,101.0,35.0,29.66,West,265,1.0,14.0,10,0.00,,,0.00,weatherlink.com 1.10,2013-06-29 00:42:00,
2013-06-28 17:57:00,100.2,34.0,29.65,North,350,3.0,13.0,10,0.00,,,0.00,weatherlink.com 1.10,2013-06-29 00:57:00,
2013-06-28 18:13:00,97.5,37.0,29.66,West,269,16.0,23.0,12,0.00,,,0.00,weatherlink.com 1.10,2013-06-29 01:13:00,
2013-06-28 18:27:00,96.6,36.0,29.67,WNW,282,18.0,21.0,12,0.00,,,0.00,weatherlink.com 1.10,2013-06-29 01:27:00,
2013-06-28 18:42:00,92.9,37.0,29.68,West,265,20.0,29.0,14,0.00,,,0.00,weatherlink.com 1.10,2013-06-29 01:42:00,
2013-06-28 18:57:00,92.1,38.0,29.68,WSW,251,12.0,28.0,15,0.00,,,0.00,weatherlink.com 1.10,2013-06-29 01:57:00,
2013-06-28 19:12:00,92.3,37.0,29.68,WNW,292,12.0,26.0,14,0.00,,,0.00,weatherlink.com 1.10,2013-06-29 02:12:00,
2013-06-28 19:27:00,91.0,39.0,29.68,WSW,246,15.0,25.0,16,0.00,,,0.00,weatherlink.com 1.10,2013-06-29 02:27:00,
2013-06-28 19:42:00,90.7,39.0,29.68,WNW,285,16.0,23.0,16,0.00,,,0.00,weatherlink.com 1.10,2013-06-29 02:42:00,
2013-06-28 19:57:00,90.1,38.0,29.66,NNW,327,14.0,21.0,16,0.00,,,0.00,weatherlink.com 1.10,2013-06-29 02:57:00,
2013-06-28 20:12:00,90.5,37.0,29.66,WNW,286,7.0,18.0,15,0.00,,,0.00,weatherlink.com 1.10,2013-06-29 03:12:00,
2013-06-28 20:27:00,92.1,36.0,29.66,West,260,9.0,12.0,14,0.00,,,0.00,weatherlink.com 1.10,2013-06-29 03:27:00,
2013-06-28 20:42:00,91.8,36.0,29.67,WNW,292,6.0,13.0,14,0.00,,,0.00,weatherlink.com 1.10,2013-06-29 03:42:00,
2013-06-28 20:57:00,91.4,36.0,29.67,WNW,288,10.0,13.0,14,0.00,,,0.00,weatherlink.com 1.10,2013-06-29 03:57:00,
2013-06-28 21:12:00,90.1,37.0,29.67,WNW,290,11.0,17.0,15,0.00,,,0.00,weatherlink.com 1.10,2013-06-29 04:12:00,
2013-06-28 21:27:00,89.5,36.0,29.68,WNW,296,5.0,16.0,15,0.00,,,0.00,weatherlink.com 1.10,2013-06-29 04:27:00,
2013-06-28 21:42:00,88.8,37.0,29.68,West,267,6.0,16.0,16,0.00,,,0.00,weatherlink.com 1.10,2013-06-29 04:42:00,
2013-06-28 21:57:00,88.4,38.0,29.69,NW,308,10.0,16.0,17,0.00,,,0.00,weatherlink.com 1.10,2013-06-29 04:57:00,
2013-06-28 22:12:00,87.8,39.0,29.70,West,263,12.0,19.0,18,0.00,,,0.00,weatherlink.com 1.10,2013-06-29 05:12:00,
2013-06-28 22:27:00,87.2,42.0,29.69,West,269,14.0,22.0,20,0.00,,,0.00,weatherlink.com 1.10,2013-06-29 05:27:00,
2013-06-28 22:42:00,86.7,44.0,29.70,West,264,19.0,20.0,22,0.00,,,0.00,weatherlink.com 1.10,2013-06-29 05:42:00,
2013-06-28 22:57:00,86.1,45.0,29.70,West,264,15.0,23.0,24,0.00,,,0.00,weatherlink.com 1.10,2013-06-29 05:57:00,
2013-06-28 23:12:00,85.9,46.0,29.70,WNW,287,13.0,22.0,25,0.00,,,0.00,weatherlink.com 1.10,2013-06-29 06:12:00,
2013-06-28 23:27:00,85.3,47.0,29.70,NW,313,20.0,21.0,26,0.00,,,0.00,weatherlink.com 1.10,2013-06-29 06:27:00,
2013-06-28 23:42:00,84.7,47.0,29.71,North,350,6.0,21.0,27,0.00,,,0.00,weatherlink.com 1.10,2013-06-29 06:42:00,
2013-06-28 23:58:00,84.5,47.0,29.71,NW,308,10.0,21.0,27,0.00,,,0.00,weatherlink.com 1.10,2013-06-29 06:58:00,